QPF
0.00 0.00 0.00 0.00 0.00 0.00 0.00 0.00 0.00 0.00 0.00 0.00 0.00 0.00 0.00 0.00 0.00 0.00 0.00 0.00 0.00 0.00 0.00 0.00 0.00 0.00 0.00 0.00 0.00 0.00 0.00 0.00 0.00 0.00 0.00 0.00 0.00 0.00 0.00 0.00 0.00 0.00 0.00
0.00 0.00 0.00 0.00 0.00 0.00 0.00 0.01 0.00 0.01 0.00 0.00 0.00 0.00 0.00 0.00 0.00 0.00 0.00 0.00 0.00 0.00 0.00 0.00 0.00 0.00 0.00 0.00 0.00 0.00 0.00 0.00 0.00 0.00 0.00 0.00 0.00 0.00 0.00 0.00 0.00 0.00 0.00
0.00 0.00 0.00 0.00 0.00 0.00 0.00 0.00 0.00 0.02 0.00 0.00 0.00 0.00 0.00 0.00 0.00 0.00 0.00 0.00 0.00 0.00 0.00 0.00 0.00 0.00 0.00 0.00 0.00 0.00 0.00 0.00 0.00 0.00 0.00 0.00 0.00 0.00 0.00 0.00 0.00 0.00 0.00
0.00 0.00 0.00 0.00 0.00 0.00 0.00 0.01 0.03 0.02 0.00 0.00 0.00 0.00 0.00 0.00 0.00 0.00 0.00 0.00 0.00 0.00 0.00 0.00 0.00 0.00 0.00 0.00 0.00 0.00 0.00 0.00 0.00 0.00 0.00 0.00 0.00 0.00 0.00 0.00 0.00 0.00 0.00
0.00 0.00 0.00 0.00 0.00 0.00 0.02 0.08 0.04 0.01 0.00 0.00 0.00 0.00 0.00 0.00 0.00 0.00 0.00 0.00 0.00 0.00 0.00 0.00 0.00 0.00 0.00 0.00 0.00 0.00 0.00 0.00 0.00 0.00 0.00 0.00 0.00 0.00 0.00 0.00 0.00 0.00 0.00
0.00 0.00 0.00 0.00 0.00 0.03 0.06 0.04 0.00 0.00 0.00 0.00 0.00 0.00 0.00 0.00 0.00 0.00 0.00 0.00 0.00 0.00 0.00 0.00 0.00 0.00 0.00 0.00 0.00 0.00 0.00 0.00 0.00 0.00 0.00 0.00 0.00 0.00 0.00 0.00 0.00 0.00 0.00
0.00 0.00 0.02 0.05 0.03 0.02 0.01 0.00 0.00 0.00 0.00 0.00 0.00 0.00 0.00 0.00 0.00 0.00 0.00 0.00 0.00 0.00 0.00 0.00 0.00 0.00 0.00 0.00 0.00 0.00 0.00 0.00 0.00 0.00 0.00 0.00 0.00 0.00 0.00 0.01 0.01 0.00 0.00
0.00 0.00 0.01 0.02 0.00 0.00 0.00 0.00 0.00 0.00 0.00 0.00 0.00 0.00 0.00 0.00 0.00 0.00 0.00 0.00 0.00 0.00 0.01 0.00 0.00 0.00 0.00 0.00 0.00 0.00 0.00 0.00 0.00 0.00 0.00 0.00 0.00 0.00 0.00 0.01 0.01 0.01 0.00
0.00 0.00 0.00 0.00 0.00 0.00 0.00 0.00 0.00 0.00 0.00 0.00 0.00 0.00 0.00 0.00 0.00 0.00 0.00 0.00 0.01 0.00 0.00 0.00 0.00 0.00 0.00 0.00 0.00 0.00 0.00 0.00 0.00 0.00 0.00 0.00 0.00 0.00 0.00 0.00 0.00 0.01 0.00
0.00 0.00 0.00 0.00 0.00 0.00 0.00 0.00 0.00 0.00 0.00 0.00 0.00 0.00 0.00 0.00 0.00 0.00 0.00 0.00 0.00 0.00 0.00 0.00 0.00 0.00 0.00 0.00 0.00 0.00 0.00 0.00 0.00 0.00 0.00 0.00 0.00 0.00 0.00 0.00 0.00 0.00 0.01
0.00 0.00 0.00 0.00 0.00 0.00 0.00 0.00 0.00 0.00 0.00 0.00 0.00 0.00 0.00 0.00 0.00 0.00 0.00 0.00 0.00 0.00 0.00 0.00 0.00 0.00 0.00 0.00 0.00 0.00 0.00 0.00 0.00 0.00 0.00 0.00 0.00 0.00 0.00 0.00 0.00 0.00 0.00
0.00 0.00 0.00 0.00 0.00 0.00 0.00 0.00 0.00 0.00 0.00 0.00 0.00 0.00 0.00 0.01 0.01 0.00 0.00 0.00 0.00 0.00 0.00 0.00 0.00 0.00 0.00 0.00 0.00 0.00 0.00 0.00 0.00 0.00 0.00 0.00 0.00 0.00 0.00 0.00 0.00 0.00 0.00
0.00 0.00 0.00 0.00 0.00 0.00 0.00 0.00 0.00 0.00 0.00 0.01 0.00 0.00 0.00 0.00 0.00 0.00 0.00 0.00 0.00 0.00 0.00 0.00 0.00 0.00 0.00 0.00 0.00 0.00 0.00 0.00 0.00 0.00 0.00 0.00 0.00 0.00 0.00 0.00 0.00 0.00 0.00
0.00 0.00 0.00 0.00 0.00 0.00 0.00 0.01 0.01 0.01 0.02 0.01 0.00 0.00 0.00 0.00 0.00 0.00 0.00 0.00 0.00 0.00 0.00 0.00 0.00 0.00 0.00 0.00 0.00 0.00 0.00 0.00 0.00 0.00 0.00 0.00 0.00 0.00 0.00 0.00 0.00 0.00 0.00
0.00 0.00 0.00 0.01 0.01 0.01 0.02 0.02 0.02 0.01 0.00 0.00 0.00 0.00 0.00 0.00 0.00 0.00 0.00 0.00 0.00 0.00 0.00 0.00 0.00 0.00 0.00 0.00 0.00 0.00 0.00 0.00 0.00 0.00 0.00 0.00 0.00 0.00 0.00 0.00 0.00 0.00 0.00
0.00 0.01 0.02 0.01 0.02 0.02 0.02 0.01 0.00 0.00 0.00 0.00 0.00 0.00 0.00 0.00 0.00 0.00 0.00 0.00 0.00 0.00 0.00 0.00 0.00 0.00 0.00 0.00 0.00 0.00 0.00 0.00 0.00 0.00 0.00 0.00 0.00 0.00 0.00 0.00 0.00 0.00 0.00
0.00 0.00 0.00 0.01 0.01 0.00 0.00 0.00 0.00 0.00 0.00 0.00 0.00 0.00 0.00 0.00 0.00 0.00 0.00 0.00 0.00 0.00 0.00 0.00 0.00 0.00 0.00 0.00 0.00 0.00 0.00 0.00 0.00 0.00 0.00 0.00 0.00 0.00 0.00 0.00 0.00 0.00 0.00
0.00 0.00 0.00 0.00 0.00 0.00 0.00 0.00 0.00 0.00 0.00 0.00 0.00 0.00 0.00 0.00 0.00 0.00 0.00 0.00 0.00 0.00 0.00 0.00 0.00 0.00 0.00 0.00 0.00 0.00 0.00 0.00 0.00 0.00 0.00 0.00 0.00 0.00 0.00 0.00 0.00 0.00 0.00
0.00 0.00 0.00 0.00 0.00 0.00 0.00 0.00 0.00 0.00 0.00 0.00 0.00 0.00 0.00 0.00 0.00 0.00 0.00 0.00 0.00 0.00 0.00 0.00 0.00 0.00 0.00 0.00 0.00 0.00 0.00 0.00 0.00 0.00 0.00 0.00 0.00 0.00 0.00 0.00 0.00 0.00 0.00
0.00 0.00 0.00 0.00 0.00 0.00 0.00 0.00 0.00 0.00 0.00 0.00 0.00 0.00 0.00 0.00 0.00 0.00 0.00 0.00 0.00 0.00 0.00 0.00 0.00 0.00 0.00 0.00 0.00 0.00 0.00 0.00 0.00 0.00 0.00 0.00 0.00 0.00 0.00 0.00 0.00 0.00 0.00
0.00 0.00 0.00 0.00 0.00 0.00 0.00 0.00 0.00 0.00 0.00 0.00 0.00 0.00 0.00 0.00 0.00 0.00 0.00 0.00 0.00 0.00 0.00 0.00 0.00 0.00 0.00 0.00 0.00 0.00 0.00 0.00 0.00 0.00 0.00 0.00 0.00 0.00 0.00 0.00 0.00 0.00 0.00
0.00 0.00 0.00 0.00 0.00 0.00 0.00 0.00 0.00 0.00 0.00 0.00 0.00 0.00 0.00 0.00 0.00 0.00 0.00 0.00 0.00 0.00 0.00 0.00 0.00 0.00 0.00 0.00 0.00 0.00 0.00 0.00 0.00 0.00 0.00 0.00 0.00 0.00 0.00 0.00 0.00 0.00 0.00
0.00 0.00 0.00 0.00 0.00 0.00 0.00 0.00 0.00 0.00 0.00 0.00 0.00 0.00 0.00 0.00 0.00 0.00 0.00 0.00 0.00 0.00 0.00 0.00 0.00 0.00 0.00 0.00 0.00 0.00 0.00 0.00 0.00 0.00 0.00 0.00 0.00 0.00 0.00 0.00 0.00 0.00 0.00
0.00 0.00 0.00 0.00 0.00 0.00 0.00 0.00 0.00 0.00 0.00 0.00 0.00 0.00 0.00 0.00 0.00 0.00 0.00 0.00 0.00 0.00 0.00 0.00 0.00 0.00 0.00 0.00 0.00 0.00 0.00 0.00 0.00 0.00 0.00 0.00 0.00 0.00 0.00 0.00 0.00 0.00 0.00
0.00 0.00 0.00 0.00 0.00 0.00 0.00 0.00 0.00 0.00 0.00 0.00 0.00 0.00 0.00 0.00 0.00 0.00 0.00 0.00 0.00 0.00 0.00 0.00 0.00 0.00 0.00 0.00 0.00 0.00 0.00 0.00 0.00 0.00 0.01 0.01 0.01 0.00 0.00 0.00 0.00 0.00 0.00
0.00 0.00 0.00 0.00 0.00 0.00 0.00 0.00 0.00 0.00 0.00 0.00 0.00 0.00 0.00 0.00 0.00 0.00 0.00 0.00 0.00 0.00 0.00 0.00 0.00 0.00 0.00 0.00 0.00 0.00 0.00 0.00 0.00 0.01 0.01 0.00 0.00 0.00 0.00 0.00 0.00 0.00 0.00
MSLP
1015.11 1015.66 1016.08 1016.38 1017.02 1017.62 1018.23 1018.73 1019.46 1020.10 1020.56 1021.06 1021.75 1022.26 1022.45 1022.63 1022.89 1023.01 1023.06 1023.30 1023.45 1023.51 1023.95 1024.34 1024.63 1024.85 1025.14 1025.62 1025.67 1025.92 1026.14 1026.21 1026.14 1026.42 1026.54 1026.28 1026.04 1026.09 1026.02 1025.96 1025.99 1025.77 1025.59
1015.63 1015.74 1016.17 1016.87 1017.27 1017.79 1018.37 1018.96 1019.34 1019.88 1020.22 1020.52 1020.89 1021.41 1022.05 1022.72 1022.71 1022.97 1023.20 1023.20 1023.39 1023.71 1024.06 1024.41 1024.72 1024.87 1025.34 1025.57 1025.64 1025.75 1026.09 1026.13 1026.05 1026.47 1026.92 1026.96 1026.57 1026.11 1026.00 1025.91 1025.85 1025.96 1025.79
1015.03 1015.74 1016.41 1017.07 1017.64 1018.17 1018.48 1018.89 1019.23 1019.64 1020.05 1020.30 1020.80 1021.48 1022.04 1022.54 1023.07 1023.26 1023.31 1023.31 1023.36 1023.57 1023.81 1024.02 1024.36 1024.71 1024.96 1025.20 1025.31 1025.47 1025.73 1026.16 1026.24 1026.27 1026.56 1026.94 1027.02 1026.56 1026.09 1025.90 1025.95 1025.91 1025.84
1014.40 1015.18 1015.85 1016.69 1017.21 1017.88 1018.49 1018.90 1019.28 1019.70 1019.98 1020.31 1020.81 1021.28 1021.85 1022.39 1022.61 1022.79 1023.02 1023.19 1023.16 1023.32 1023.49 1023.93 1024.24 1024.56 1024.82 1025.13 1025.21 1025.27 1025.59 1025.94 1026.22 1026.21 1026.11 1026.22 1026.61 1026.90 1026.56 1026.19 1025.84 1025.81 1025.66
1013.77 1014.68 1015.27 1015.87 1016.76 1017.47 1018.06 1018.68 1019.32 1019.67 1019.86 1020.26 1020.52 1021.06 1021.70 1021.87 1022.24 1022.76 1023.06 1023.20 1023.30 1023.53 1023.93 1024.31 1024.59 1024.77 1024.89 1025.10 1025.22 1025.31 1025.52 1025.71 1025.93 1026.08 1026.17 1026.32 1026.42 1026.57 1026.87 1026.25 1026.17 1026.03 1025.52
1014.02 1014.75 1015.37 1015.95 1016.55 1017.15 1017.75 1018.52 1019.07 1019.51 1019.54 1019.96 1020.34 1020.80 1021.33 1021.88 1022.46 1022.90 1023.29 1023.61 1023.83 1023.89 1024.42 1024.46 1025.07 1024.99 1024.96 1025.13 1025.37 1025.42 1025.49 1025.52 1025.64 1025.72 1025.87 1026.07 1026.25 1026.32 1026.49 1026.38 1026.22 1026.21 1025.72
1013.76 1014.57 1015.43 1015.86 1016.73 1017.16 1017.75 1018.35 1019.00 1019.39 1019.59 1019.83 1020.31 1020.94 1021.30 1021.76 1022.25 1022.78 1023.05 1023.27 1023.99 1024.44 1024.66 1025.00 1025.39 1025.28 1025.29 1025.33 1025.35 1025.32 1025.41 1025.43 1025.50 1025.53 1025.68 1025.70 1025.73 1025.75 1025.83 1025.88 1025.91 1025.94 1025.63
1013.52 1014.36 1014.97 1015.62 1016.38 1016.94 1017.54 1018.05 1018.75 1019.44 1019.74 1020.07 1020.65 1021.15 1021.60 1021.99 1022.43 1022.91 1023.82 1024.19 1024.17 1024.57 1024.24 1024.93 1025.27 1025.28 1025.26 1025.17 1025.19 1025.34 1025.40 1025.24 1025.35 1025.44 1025.48 1025.44 1025.34 1025.33 1025.35 1025.54 1025.74 1025.69 1025.88
1013.55 1014.05 1014.66 1015.27 1016.00 1016.62 1017.13 1017.70 1018.66 1019.51 1019.83 1020.29 1020.79 1021.27 1021.61 1021.99 1022.42 1023.03 1023.41 1024.15 1024.23 1024.26 1024.62 1024.63 1024.77 1024.92 1025.00 1025.10 1025.15 1025.49 1025.50 1025.46 1025.51 1025.61 1025.58 1025.47 1025.20 1025.01 1024.81 1025.05 1025.29 1025.84 1026.17
1013.42 1014.00 1014.58 1015.15 1015.62 1016.07 1016.78 1017.63 1018.33 1019.05 1019.71 1020.19 1020.67 1021.25 1021.73 1022.10 1022.31 1022.78 1022.86 1023.36 1023.97 1024.14 1024.39 1024.49 1024.49 1024.68 1024.82 1024.87 1025.13 1025.50 1025.48 1025.49 1025.46 1025.43 1025.41 1025.27 1025.15 1025.18 1024.96 1025.10 1025.51 1025.59 1025.94
1012.89 1013.56 1014.13 1014.62 1014.89 1015.62 1016.48 1017.21 1018.04 1018.93 1019.86 1020.39 1020.82 1021.26 1021.82 1021.92 1022.86 1022.78 1023.11 1023.14 1023.66 1024.00 1024.22 1024.28 1024.49 1024.62 1024.73 1024.73 1024.96 1025.17 1025.32 1025.34 1025.39 1025.36 1025.35 1025.21 1025.05 1025.01 1024.94 1025.00 1025.24 1025.82 1025.70
1012.31 1012.95 1013.42 1014.08 1014.84 1015.58 1016.43 1017.08 1017.73 1018.26 1019.27 1020.29 1020.73 1021.19 1021.54 1022.38 1022.91 1023.11 1023.11 1023.52 1023.81 1023.98 1024.08 1024.26 1024.36 1024.49 1024.61 1024.74 1024.94 1024.98 1025.04 1025.06 1025.04 1024.97 1025.01 1024.99 1024.84 1024.90 1024.92 1025.08 1025.36 1025.53 1025.57
1011.89 1012.53 1013.29 1013.90 1014.59 1015.42 1016.26 1017.26 1018.17 1018.82 1019.35 1019.95 1020.78 1021.46 1022.15 1022.54 1023.08 1023.30 1023.52 1023.82 1023.92 1024.03 1024.20 1024.14 1024.12 1024.20 1024.36 1024.62 1024.78 1024.75 1024.70 1024.66 1024.61 1024.57 1024.70 1024.66 1024.58 1024.69 1024.77 1024.94 1025.21 1025.34 1025.31
1011.30 1012.29 1013.24 1013.93 1014.95 1015.89 1016.74 1017.70 1018.79 1019.26 1019.78 1020.33 1020.96 1021.68 1022.25 1022.77 1023.05 1023.35 1023.67 1023.77 1023.77 1023.99 1023.92 1023.81 1023.86 1023.91 1023.96 1024.16 1024.35 1024.46 1024.48 1024.40 1024.39 1024.45 1024.50 1024.38 1024.27 1024.19 1024.34 1024.65 1024.94 1025.04 1025.20
1011.82 1012.60 1013.61 1014.57 1015.59 1016.34 1017.26 1018.18 1019.02 1019.46 1020.08 1020.69 1021.25 1021.93 1022.29 1022.51 1022.83 1023.15 1023.48 1023.54 1023.56 1023.60 1023.59 1023.59 1023.50 1023.58 1023.81 1023.81 1023.86 1024.10 1024.21 1024.28 1024.16 1024.26 1024.23 1024.08 1023.92 1023.55 1023.89 1024.25 1024.61 1024.77 1024.95
1011.83 1012.76 1013.78 1014.81 1015.89 1016.80 1017.74 1018.45 1019.20 1019.82 1020.25 1020.85 1021.45 1021.89 1022.20 1022.49 1022.59 1023.09 1023.28 1023.29 1023.50 1023.54 1023.63 1023.58 1023.55 1023.61 1023.56 1023.36 1023.51 1023.75 1023.97 1024.10 1024.12 1024.13 1024.07 1023.93 1023.61 1023.42 1023.62 1023.86 1024.07 1024.31 1024.56
1012.12 1013.10 1013.96 1014.76 1015.85 1016.89 1017.76 1018.71 1019.39 1019.88 1020.49 1021.11 1021.65 1022.02 1022.21 1022.48 1022.59 1022.77 1023.21 1023.44 1023.57 1023.63 1023.61 1023.52 1023.51 1023.53 1023.43 1023.29 1023.38 1023.55 1023.63 1023.78 1023.86 1023.87 1023.83 1023.64 1023.54 1023.64 1023.79 1023.78 1023.92 1024.17 1024.16
1013.21 1014.02 1014.88 1015.92 1016.85 1017.62 1018.53 1019.28 1020.14 1020.40 1020.65 1021.16 1021.59 1021.84 1021.97 1022.28 1022.61 1023.02 1023.22 1023.35 1023.41 1023.45 1023.41 1023.32 1023.24 1023.22 1023.10 1023.06 1023.24 1023.36 1023.49 1023.57 1023.58 1023.60 1023.58 1023.53 1023.50 1023.60 1023.66 1023.76 1023.91 1023.89 1023.84
1014.41 1015.14 1015.86 1016.65 1017.53 1018.37 1019.15 1019.81 1020.50 1020.84 1021.06 1021.42 1021.69 1021.90 1022.16 1022.55 1022.89 1023.19 1023.24 1023.29 1023.31 1023.28 1023.14 1022.98 1022.85 1022.85 1022.98 1022.98 1022.94 1023.15 1023.26 1023.29 1023.22 1023.16 1023.22 1023.20 1023.13 1023.21 1023.19 1023.47 1023.62 1023.52 1023.36
1016.01 1016.52 1017.26 1017.86 1018.54 1019.57 1019.95 1020.45 1021.04 1021.28 1021.57 1021.70 1021.86 1022.00 1022.35 1022.61 1022.83 1022.97 1023.12 1023.21 1023.34 1023.41 1023.22 1022.92 1022.80 1022.72 1022.68 1022.54 1022.44 1022.53 1022.66 1022.82 1022.84 1022.74 1022.75 1022.62 1022.71 1022.79 1022.91 1023.05 1023.26 1023.25 1023.02
1017.59 1018.11 1018.57 1019.21 1019.96 1020.32 1020.57 1021.05 1021.39 1021.58 1021.73 1021.86 1022.06 1022.15 1022.29 1022.51 1022.64 1022.83 1022.92 1022.99 1023.08 1023.21 1023.11 1023.11 1022.88 1022.70 1022.41 1022.12 1021.92 1021.83 1022.07 1022.18 1022.35 1022.33 1022.18 1022.13 1022.12 1022.23 1022.30 1022.30 1022.55 1022.69 1022.47
1018.91 1019.32 1019.68 1020.34 1020.63 1020.80 1020.94 1021.37 1021.62 1021.75 1021.82 1021.82 1021.91 1022.04 1022.17 1022.25 1022.29 1022.52 1022.62 1022.75 1022.92 1023.06 1023.06 1022.91 1022.70 1022.44 1022.03 1021.74 1021.39 1021.16 1021.24 1021.19 1021.58 1021.57 1021.40 1021.45 1021.60 1021.69 1021.78 1021.81 1021.82 1021.86 1021.87
1019.69 1020.08 1020.36 1020.78 1021.09 1021.26 1021.23 1021.48 1021.76 1021.70 1021.77 1021.92 1022.05 1022.05 1022.01 1022.05 1022.13 1022.38 1022.51 1022.65 1022.65 1022.58 1022.40 1022.29 1022.06 1021.73 1021.37 1020.99 1020.72 1020.60 1020.49 1020.52 1020.71 1020.69 1020.61 1020.79 1021.01 1021.11 1021.18 1021.21 1021.21 1021.21 1021.24
1020.13 1020.44 1020.78 1021.18 1021.53 1021.53 1021.55 1021.60 1021.65 1021.73 1021.89 1021.99 1021.96 1021.86 1021.96 1021.91 1021.80 1021.79 1021.86 1022.06 1021.99 1021.83 1021.72 1021.54 1021.32 1020.88 1020.58 1020.37 1020.06 1019.87 1019.92 1019.89 1019.79 1019.88 1020.02 1020.17 1020.36 1020.51 1020.63 1020.70 1020.65 1020.57 1020.63
1020.64 1020.84 1021.16 1021.53 1021.77 1021.84 1021.86 1021.80 1021.79 1021.82 1021.91 1021.86 1021.79 1021.71 1021.62 1021.55 1021.34 1021.05 1020.96 1020.95 1020.57 1020.52 1020.35 1020.23 1020.17 1020.01 1019.74 1019.44 1019.14 1019.15 1019.11 1019.09 1019.13 1019.29 1019.63 1019.78 1019.85 1020.03 1020.15 1020.18 1020.07 1019.97 1020.00
1021.02 1021.27 1021.51 1021.85 1022.06 1022.13 1022.30 1022.42 1022.48 1022.39 1022.39 1022.27 1022.05 1021.81 1021.61 1021.35 1020.95 1020.46 1019.86 1019.53 1019.20 1018.86 1018.73 1018.57 1018.69 1018.44 1018.42 1018.24 1018.20 1018.15 1018.08 1018.17 1018.45 1018.71 1018.91 1019.04 1019.21 1019.44 1019.54 1019.54 1019.45 1019.38 1019.42
Thickness
5662 5660 5660 5659 5652 5647 5642 5638 5633 5629 5626 5621 5615 5612 5610 5606 5602 5598 5595 5591 5588 5585 5578 5572 5566 5560 5553 5544 5538 5532 5526 5520 5517 5510 5504 5500 5496 5491 5486 5482 5479 5475 5471
5651 5655 5653 5649 5647 5644 5641 5635 5632 5628 5626 5624 5620 5614 5608 5600 5597 5593 5588 5586 5581 5576 5570 5564 5557 5550 5540 5533 5528 5522 5515 5509 5506 5498 5486 5482 5480 5479 5476 5471 5466 5461 5457
5644 5644 5642 5639 5639 5637 5636 5634 5631 5629 5625 5623 5616 5609 5603 5597 5590 5586 5583 5580 5575 5569 5563 5556 5548 5539 5532 5525 5519 5513 5507 5498 5490 5484 5476 5467 5463 5462 5465 5461 5455 5449 5442
5657 5648 5645 5642 5641 5637 5632 5629 5627 5623 5621 5619 5612 5606 5600 5593 5588 5584 5579 5574 5568 5561 5554 5545 5537 5529 5522 5515 5509 5503 5495 5486 5479 5474 5470 5462 5455 5447 5444 5445 5440 5433 5424
5665 5654 5649 5646 5641 5637 5632 5627 5623 5621 5618 5614 5610 5603 5594 5590 5585 5578 5571 5565 5558 5550 5543 5535 5528 5521 5514 5506 5498 5491 5484 5476 5470 5462 5455 5447 5438 5430 5422 5425 5415 5408 5401
5659 5653 5651 5646 5641 5637 5632 5626 5621 5617 5616 5612 5606 5599 5594 5585 5577 5569 5560 5552 5544 5538 5527 5521 5511 5506 5499 5492 5484 5477 5470 5463 5456 5448 5439 5431 5422 5413 5404 5400 5394 5385 5379
5658 5653 5646 5643 5636 5634 5630 5624 5618 5614 5611 5606 5599 5590 5584 5578 5569 5559 5551 5542 5529 5520 5511 5502 5490 5486 5480 5473 5468 5461 5454 5448 5440 5433 5424 5417 5409 5399 5389 5381 5376 5366 5360
5658 5652 5648 5643 5638 5634 5628 5623 5615 5609 5604 5598 5588 5578 5571 5564 5556 5546 5530 5521 5515 5506 5503 5491 5482 5475 5468 5463 5457 5448 5441 5434 5426 5418 5410 5402 5393 5383 5372 5359 5348 5345 5330
5653 5651 5649 5644 5636 5630 5625 5620 5611 5602 5597 5588 5578 5569 5561 5553 5544 5534 5525 5512 5505 5499 5491 5484 5476 5467 5459 5452 5443 5434 5426 5419 5411 5401 5392 5383 5375 5365 5356 5341 5326 5309 5297
5650 5647 5645 5640 5636 5631 5624 5615 5607 5598 5587 5578 5568 5558 5549 5542 5535 5525 5521 5509 5497 5488 5480 5473 5465 5455 5448 5439 5428 5419 5411 5403 5393 5384 5374 5365 5355 5342 5332 5319 5301 5289 5276
5650 5646 5644 5641 5639 5630 5619 5609 5599 5587 5574 5565 5557 5550 5541 5535 5524 5515 5506 5499 5488 5478 5469 5460 5450 5442 5434 5425 5415 5405 5394 5384 5373 5364 5354 5345 5334 5322 5310 5297 5283 5267 5260
5650 5647 5644 5639 5631 5624 5613 5604 5595 5587 5572 5559 5548 5538 5531 5520 5515 5501 5493 5482 5474 5465 5456 5447 5439 5429 5419 5409 5399 5389 5379 5368 5358 5348 5336 5325 5315 5300 5288 5275 5263 5253 5245
5649 5643 5637 5631 5624 5615 5604 5591 5580 5569 5558 5547 5536 5526 5516 5506 5495 5486 5477 5467 5459 5451 5442 5434 5426 5415 5404 5393 5382 5373 5364 5354 5343 5332 5318 5307 5294 5281 5269 5258 5248 5241 5236
5647 5636 5628 5622 5610 5599 5587 5575 5562 5554 5545 5537 5527 5514 5502 5491 5482 5472 5462 5454 5446 5437 5429 5421 5413 5403 5392 5381 5368 5357 5346 5337 5325 5312 5299 5289 5277 5267 5258 5247 5237 5232 5227
5632 5624 5615 5604 5592 5583 5573 5563 5552 5544 5534 5522 5510 5498 5489 5482 5472 5462 5452 5443 5434 5425 5417 5409 5401 5390 5377 5366 5354 5340 5327 5317 5307 5294 5284 5274 5267 5260 5249 5237 5228 5224 5220
5624 5615 5606 5596 5584 5573 5563 5554 5543 5531 5520 5509 5498 5487 5479 5470 5461 5449 5439 5431 5421 5412 5402 5393 5384 5373 5361 5350 5337 5323 5310 5299 5289 5278 5267 5259 5254 5247 5237 5229 5223 5218 5214
5614 5605 5598 5590 5579 5566 5555 5540 5528 5518 5507 5496 5485 5475 5466 5455 5447 5439 5427 5416 5406 5395 5386 5377 5368 5357 5345 5333 5321 5309 5297 5285 5275 5264 5255 5249 5242 5234 5226 5221 5216 5211 5208
5601 5593 5583 5569 5557 5546 5534 5522 5510 5502 5495 5484 5472 5462 5454 5445 5434 5422 5412 5402 5392 5381 5372 5361 5351 5340 5330 5319 5307 5296 5284 5273 5262 5253 5245 5238 5231 5224 5217 5212 5208 5205 5202
5580 5570 5561 5552 5541 5529 5518 5506 5494 5485 5477 5466 5458 5449 5439 5427 5417 5407 5398 5388 5379 5369 5359 5349 5339 5328 5316 5306 5295 5285 5273 5261 5251 5244 5236 5230 5224 5218 5212 5206 5202 5200 5198
5559 5551 5540 5530 5520 5505 5497 5487 5476 5468 5459 5452 5443 5434 5423 5413 5403 5393 5384 5374 5364 5354 5344 5335 5326 5315 5305 5296 5286 5275 5263 5252 5243 5236 5229 5223 5218 5212 5207 5201 5196 5193 5194
5533 5525 5517 5507 5494 5486 5481 5471 5461 5453 5446 5437 5428 5420 5411 5401 5390 5378 5368 5359 5348 5337 5328 5319 5309 5301 5294 5287 5278 5268 5256 5245 5236 5229 5223 5218 5213 5208 5203 5199 5194 5191 5191
5512 5504 5496 5485 5477 5472 5465 5454 5447 5438 5431 5424 5416 5407 5397 5387 5377 5364 5353 5341 5329 5320 5310 5302 5297 5288 5281 5275 5268 5260 5250 5240 5230 5224 5219 5214 5210 5205 5200 5196 5194 5192 5190
5494 5486 5479 5471 5463 5455 5449 5440 5431 5425 5418 5409 5400 5390 5381 5371 5362 5350 5338 5325 5315 5306 5299 5291 5286 5282 5273 5265 5258 5250 5242 5234 5226 5220 5216 5210 5205 5202 5198 5194 5192 5190 5187
5479 5472 5464 5456 5447 5440 5434 5428 5420 5412 5403 5394 5384 5375 5365 5356 5346 5336 5326 5315 5304 5295 5289 5283 5276 5271 5265 5255 5249 5243 5233 5227 5222 5216 5211 5205 5200 5197 5194 5190 5188 5186 5183
5465 5458 5450 5440 5433 5426 5419 5412 5405 5397 5388 5379 5371 5362 5352 5342 5333 5326 5317 5306 5302 5289 5282 5274 5266 5258 5254 5245 5239 5232 5226 5219 5215 5211 5204 5198 5195 5192 5189 5187 5185 5183 5181
5449 5441 5433 5425 5417 5410 5402 5393 5385 5378 5370 5362 5354 5344 5336 5328 5320 5314 5313 5306 5296 5288 5277 5267 5255 5252 5244 5237 5230 5224 5220 5215 5209 5204 5196 5192 5188 5186 5185 5183 5182 5181 5179